CAPE
0 6 699 1488 223 454 713 480 406 391 309 76 39 269 350 524 416 648 315 483 828 454 1073 1479 2355 2317 2180 2348 2357 2050 1790 1754 1923 1990 2097 1829 1959 2121 2375 2622 2592 2777 2576 2054 1792 1800 1697 1663 1971
86 1014 1450 555 612 451 535 333 348 411 511 237 345 245 230 365 642 662 615 433 386 454 287 928 2348 2392 2396 2636 2538 2476 2081 1552 2115 1908 1846 1468 1366 1465 1723 1989 2086 2361 2361 2318 2153 2124 1755 1641 1746
1 784 1443 49 175 791 551 310 407 200 222 290 91 476 376 420 901 777 536 377 253 224 390 1311 3056 2479 2686 2833 2672 2663 2535 1861 2015 1985 1146 1231 1154 1013 1099 1394 1765 1902 1928 2005 2208 2493 2254 2365 1840
265 1541 415 302 305 387 367 267 460 326 177 364 564 465 381 417 725 811 555 506 302 243 607 2496 3136 2244 2807 2832 2644 2891 2738 1902 1790 1010 443 433 721 926 835 694 1125 1536 1769 1679 1595 1552 1737 2156 2232
293 849 329 894 239 244 65 303 359 280 255 561 518 412 496 654 594 858 652 532 818 1239 774 1452 2977 2671 2883 2710 2936 2370 2362 1712 1477 1017 732 646 230 198 563 853 598 965 1511 1743 1778 1608 1366 1225 1385
272 229 204 514 437 289 197 351 297 526 377 443 463 458 620 625 771 1015 795 710 1044 1297 624 803 2511 3005 2905 2682 2392 2528 2178 1625 1011 585 705 548 241 60 122 755 619 573 1067 1363 1391 1520 1268 1315 1227
380 602 495 213 128 211 31 70 101 292 544 310 674 727 596 522 599 1037 836 978 1065 1091 1214 1481 1119 1814 2171 2863 2405 2122 1931 1167 579 270 626 387 168 109 15 173 821 510 618 1121 1280 1627 1585 1441 1427
264 282 190 62 271 0 1 30 19 145 216 314 893 863 817 571 506 943 959 1025 1207 909 1014 1492 1864 1782 1779 1667 2120 1746 1523 1084 447 128 420 236 40 0 4 42 366 711 744 1076 1510 1529 1444 1448 1610
100 111 134 139 123 146 63 50 411 440 536 488 1061 993 663 590 657 617 992 977 1195 1219 1080 1015 1038 1766 1743 1719 1628 1870 1579 1241 699 309 521 247 93 0 27 33 178 490 618 1119 1424 1668 1643 1896 1921
1 4 41 87 43 35 19 304 1 187 770 780 938 869 752 618 646 609 676 892 875 1118 994 985 880 1007 1221 1202 2092 2009 1930 939 998 413 860 258 28 19 0 15 125 380 556 1005 1504 1675 1596 1612 1632
5 17 10 2 7 47 259 262 36 108 338 861 925 890 776 700 676 717 814 891 1047 1059 1142 832 1681 1270 792 1756 1576 2023 1268 353 555 602 676 767 475 0 1 55 40 181 240 380 1090 1344 1115 895 411
0 0 9 7 0 34 20 91 32 126 399 634 964 927 737 744 717 659 784 745 918 1091 1061 809 1838 2208 1846 1462 1637 1776 1178 641 730 533 736 446 339 350 96 99 127 124 137 395 752 820 698 464 1188
4 0 1 0 0 26 5 47 137 330 430 765 1104 923 777 727 643 624 577 603 852 904 950 952 1947 2753 2205 1690 1833 1630 873 985 836 601 486 681 596 309 193 531 323 142 131 606 264 1098 1439 1663 1582
0 0 4 3 0 0 4 21 91 34 442 886 1189 994 899 789 671 618 551 704 807 1068 990 1226 1819 2656 2699 2345 2155 1554 255 23 1043 1032 821 491 790 529 236 284 828 1127 1583 1291 1332 844 1700 1605 1590
0 0 18 0 0 2 0 25 149 59 318 776 1189 1159 1031 891 685 670 580 871 897 1133 1009 1662 1484 2182 2652 3471 3452 2577 1169 1186 1119 963 840 723 748 535 775 505 484 1051 1256 1171 843 679 1734 1881 1184
0 2 34 2 0 0 0 11 80 142 285 696 942 1114 1175 1117 837 755 699 772 1155 1185 1520 1622 1247 1792 2389 3238 2996 3230 1951 1945 1430 1537 670 1019 682 816 1396 876 860 1262 1658 1639 797 1218 1129 1192 726
16 23 1 2 0 0 0 1 78 2 97 482 677 1029 1165 1297 1198 1083 887 951 1126 1539 1602 1764 2108 1730 2504 2932 2628 2809 2094 2265 1678 1268 1170 1335 810 751 1686 1676 1350 1951 1490 1032 1064 924 1149 1105 1105
40 6 0 0 0 0 0 0 0 2 13 28 609 1151 1150 1248 1402 1484 1297 1244 1375 1639 2161 2404 2522 3143 3339 3413 2951 2724 1757 805 718 1189 755 1077 1422 960 426 1002 1793 1761 1536 1308 1514 1190 1894 1960 1256
0 0 0 0 0 0 0 0 0 0 0 19 30 640 1067 1090 1238 1561 1417 1538 1580 1872 2466 2777 3265 3251 1989 2424 2629 2583 1723 1705 1583 1106 922 567 641 1562 946 960 1383 1153 1774 1293 1525 1460 1059 1457 1485
0 0 0 0 0 0 0 0 0 0 0 0 0 309 717 1008 1195 1733 1616 1570 1570 2229 2892 3456 4019 3502 1368 923 2114 3492 3284 2234 2022 1689 1496 1390 1003 1803 989 380 252 1093 1706 1714 561 952 572 1182 1615
1 7 0 0 0 0 0 1 0 0 0 0 0 87 347 715 1049 1358 1675 1582 1297 2489 3219 3762 4202 3548 1905 1754 1877 3260 2473 2055 2790 2430 2090 1708 1888 1083 468 473 167 483 1312 520 737 821 979 1020 1346
6 0 0 0 0 0 0 58 126 40 57 22 56 139 218 469 550 1285 1511 1473 972 2108 2595 3964 4350 4176 3249 3015 3268 3728 2794 2031 1991 2465 2192 2499 1981 955 674 816 372 266 873 589 369 1183 780 670 1049
0 0 0 0 0 0 0 159 364 173 12 168 206 120 230 222 334 70 1154 1726 1485 1831 1863 2743 4311 4703 4452 4010 3970 3875 3123 2689 2636 2214 2634 2771 2266 1977 969 662 621 759 1253 1336 616 1482 1936 1808 1484
0 0 0 0 0 0 28 119 184 31 7 201 371 336 372 242 321 35 15 1971 1934 1841 1560 2190 3972 4691 4690 4624 4479 4355 3805 3299 2712 2703 2922 2477 2010 1618 1999 1649 1309 1292 1459 1518 1011 775 668 1007 1663
0 0 0 42 98 17 8 81 114 3 0 147 326 663 552 471 213 355 1073 1130 2360 1705 1785 2391 3634 4326 4550 4616 4520 4428 4562 3450 3137 3327 2697 2352 2169 1838 2349 2190 2187 1974 1288 1655 1777 1650 1639 1393 1505
0 0 10 127 138 130 110 184 193 159 1 399 841 882 893 1040 1224 1362 1399 1407 2023 2224 1700 1900 3841 4373 4469 4290 4414 4819 4741 3991 3688 3597 2772 2160 1896 1901 2356 2286 2271 2657 2277 2222 2265 1996 1121 1633 1766
0 3 0 19 49 122 152 267 59 63 238 212 1238 1155 1468 2135 2356 2275 2247 2092 2076 2142 2940 3266 3611 3981 4328 4193 4506 4614 4616 4714 3999 3172 2838 1505 3698 2960 1682 2338 2507 2269 2541 2076 2112 2141 1725 1343 1768
0 0 81 105 329 325 87 192 0 348 74 191 256 1104 1848 1915 1468 2221 2340 2440 2420 2292 2474 3198 3310 4355 3919 4281 4370 4071 4315 4532 4461 4253 3888 3395 3856 3908 3869 3146 2380 2568 2153 2226 1682 1064 1931 1290 683
0 0 1 29 44 152 17 45 224 315 179 160 716 987 1705 1831 1752 1482 1435 1676 2069 1812 2059 2029 2527 3347 3843 3484 3824 4321 3581 3559 4126 4195 4605 3981 3630 3789 4061 3525 2751 2312 2602 2426 1707 1240 972 1404 1214
110 119 74 179 287 122 213 145 252 99 26 113 98 587 1458 1263 1427 1067 1135 1182 1149 1639 2138 1985 2219 2293 2598 3348 4021 3780 3210 3091 3508 3841 3715 3821 3784 1830 2781 3505 2732 2602 2419 2007 1132 1386 1670 1141 967
CIN
0 -100 -187 -5 -103 -46 -16 -7 -53 -24 -4 -14 -6 -6 -6 -15 -26 -14 -13 -46 -34 -73 -4 0 0 0 0 0 0 0 0 0 0 0 0 0 0 0 0 0 0 0 0 -1 -2 -1 -6 -7 -1
-231 -101 -18 -104 -12 -36 -25 -13 -1 -4 -3 -49 -11 -41 -12 -11 -21 -35 -5 -33 -69 -60 -76 -12 0 0 0 0 0 0 0 0 0 0 0 0 0 0 0 0 0 0 0 0 0 0 -3 -5 -1
-25 -82 -33 -38 -12 -21 -3 -6 -12 -31 -8 -20 -23 -19 -31 -1 -3 -20 -14 -21 -50 -70 -50 -6 0 0 0 0 0 0 0 0 0 0 -6 -16 -31 -7 0 0 -1 0 0 0 0 0 0 0 -2
-148 -2 -183 -104 -40 -10 -7 -1 -3 -10 -29 -5 -10 -20 -16 0 0 -10 -14 -9 -31 -29 -42 0 0 0 0 0 0 0 0 0 0 -34 -64 -36 -53 -38 -19 -3 -1 -1 0 0 0 0 0 0 0
-67 -129 -112 -82 -2 -3 -37 -2 -12 -12 -5 -2 -23 -8 -3 -1 0 -5 -2 -7 -3 -4 -37 -5 0 0 0 0 0 0 0 0 -3 -40 -60 -60 -73 -67 -43 -11 -1 -2 -2 -3 -1 0 0 -4 -7
-25 -202 -59 -32 -20 -74 -15 -1 -35 -52 -157 -5 -16 -21 -3 -3 -1 -22 -10 -9 -1 0 -33 -36 0 0 0 0 0 0 0 0 -12 -36 -48 -81 -91 -110 -80 -15 -7 -1 0 0 0 0 0 -3 -15
-9 -25 -12 -63 -102 -49 -109 -41 -40 -6 -52 -9 -11 -26 -4 -2 -1 -16 -20 -3 -3 -7 -3 -1 -7 0 0 0 0 0 0 0 -25 -44 -47 -63 -36 -32 -78 -61 -5 -3 0 -1 0 0 0 -5 -10
-3 -12 -21 -119 -35 0 -9 -104 -100 -33 -15 -1 -31 -57 -14 0 -1 -30 -45 -21 -9 -4 -19 -4 -1 0 0 0 0 0 0 -1 -28 -49 -34 -48 -35 0 -53 -66 -15 -1 0 0 0 0 -1 -10 -8
-59 -22 -51 -82 -71 -46 -110 -28 -79 -228 -41 -4 -9 -13 -5 -9 0 -7 -30 -36 -36 -3 -12 -5 -5 0 -1 0 0 -1 -2 0 -1 -18 -7 -32 -65 -20 -32 -38 -18 -1 -1 0 0 0 0 -1 -4
-8 -7 -42 -133 -154 -131 -1 -58 -160 -251 -126 -12 -5 0 -16 -12 0 -8 -8 -9 -16 -15 -7 -8 -16 -15 -2 -1 -7 -1 -3 -12 -10 -25 -1 -20 -94 -38 0 -44 -18 -13 -1 0 -1 -6 -8 -3 -15
-3 -1 0 0 0 -9 -8 -13 -85 -115 -1 -2 -25 -23 -25 -9 -1 -1 -5 -2 -15 -45 -7 -14 -13 -34 -41 -27 -33 -10 -17 -28 -15 -26 -23 -7 -20 0 -10 -31 -59 -22 -28 -32 -11 -22 -28 -52 -110
-2 0 -3 -2 0 -1 -1 -13 -14 -6 -1 -8 -21 -55 -33 -7 -1 0 0 -1 -1 -1 -2 -6 -16 -63 -42 -69 -44 -14 -40 -29 -22 -29 -14 -25 -21 -19 -24 -17 -22 -43 -46 -15 -33 -42 -85 -102 -80
-3 0 -1 0 0 -1 -2 -2 -4 -3 -4 -13 -30 -48 -31 -9 -3 -1 -2 -2 -1 -6 -2 -41 -13 -18 -30 -74 -59 -22 -76 -53 -47 -52 -18 -16 -2 -12 -29 -9 -3 -23 -37 -14 -98 -23 -26 -45 -12
0 0 0 -1 0 -1 -1 -1 -85 -31 -1 -7 -18 -25 -35 -22 -17 -2 -2 -1 -1 -5 -1 -28 -14 -21 -6 -17 -31 -47 -159 -230 -17 -22 -35 -43 -14 -33 -36 -41 -12 -29 -9 -17 -22 -68 -14 -27 -37
0 0 -1 0 0 -1 -1 -32 -1 -11 -6 -8 -2 0 -4 -24 -18 -10 -3 -2 -7 -6 -5 -9 -47 -37 -13 -9 -5 -24 -79 -37 -48 -24 -68 -45 -21 -39 -22 -32 -52 -14 -9 -49 -74 -81 -13 -18 -20
0 -1 -21 -3 0 0 0 -45 -1 -7 -4 -2 -1 -2 -2 -5 -9 -22 -23 -3 -3 -3 -29 -22 -6 -24 -20 -11 -21 -14 -37 -50 -59 -24 -82 -42 -72 -26 -11 -33 -41 -30 -19 -19 -59 -31 -33 -21 -40
-3 -3 -1 -1 0 0 0 -1 -10 -3 -5 -2 -3 -6 -4 0 -2 -12 -23 -6 -3 -2 -21 -3 -26 -42 -34 -19 -22 -10 -20 -26 -28 -53 -40 -20 -64 -49 -8 -11 -22 -8 -23 -37 -39 -29 -25 -28 -36
-12 -14 0 0 0 0 0 0 0 -2 -4 -12 -4 -8 -12 -1 -1 -3 -5 -2 -2 -2 -6 -10 -10 -39 -25 -17 -19 -13 -54 -135 -137 -13 -54 -24 -14 -37 -30 -37 -5 -10 -19 -36 -29 -40 -28 -32 -27
0 0 0 0 0 0 0 0 0 0 0 -4 -20 -4 -9 -1 -2 -4 -9 -2 0 -4 -10 -9 -12 -63 -103 -33 -2 -6 -52 -24 -17 -49 -74 -90 -68 -13 -39 -36 -17 -25 -11 -22 -23 -32 -53 -45 -35
0 0 0 0 0 0 0 0 0 0 0 0 0 -2 -2 -3 -6 -5 -16 -2 -12 -3 -12 -13 -12 -44 -148 -163 -35 -3 -18 -34 -25 -24 -26 -22 -42 -17 -59 -108 -109 -16 -9 -9 -38 -35 -32 -44 -42
0 -1 0 0 0 0 0 -1 0 0 0 0 0 -8 -2 -2 -3 -14 -23 -16 -22 -7 -10 -21 -16 -39 -109 -92 -61 -10 -34 -34 -5 -5 -1 -18 -5 -68 -137 -142 -180 -66 -19 -63 -21 -30 -16 -31 -46
0 0 0 0 0 0 0 -10 -2 -156 -55 -21 -10 -7 -5 -6 -7 -8 -9 -20 -68 -15 -4 -10 -15 -12 -36 -25 -2 -2 -15 -20 -35 -7 -6 -2 -12 -64 -97 -91 -141 -128 -40 -59 -59 -30 -41 -68 -55
0 0 0 0 0 0 0 -4 -70 -285 -326 -98 -2 -5 -3 -15 -1 -121 -13 -9 -8 -19 -46 -26 -4 -3 -3 -1 -3 -10 -13 -35 -26 -26 -11 -9 -8 -14 -73 -102 -101 -60 -23 -19 -82 -26 -16 -22 -31
0 0 0 0 0 0 -3 -4 -258 -582 -174 -251 -6 -1 -5 -4 -28 -789 -230 -7 -6 -10 -66 -61 -11 -1 -1 -1 -1 -3 -3 -25 -23 -18 -7 -5 -26 -23 -18 -33 -63 -46 -15 -8 -52 -55 -72 -53 -34
0 0 -1 -1 -3 -12 -53 -7 -144 -237 0 -147 0 -2 -7 -2 -11 -3 -5 -7 -11 -44 -41 -59 -34 -13 -2 0 0 -2 0 -13 -22 -7 -3 -12 -14 -31 -24 -24 -8 -25 -71 -16 -13 -24 -23 -37 -31
0 0 -1 -47 -47 -28 -4 -1 -9 -183 -20 -3 -1 -9 -1 -3 -5 -8 -12 -5 -10 -14 -88 -99 -53 -5 -1 -1 -1 -2 -1 -2 -3 -8 -6 -13 -23 -50 -38 -58 -32 -7 -15 -9 -7 -13 -57 -30 -22
0 0 -1 -4 -48 -7 -4 -84 -2 -3 0 -3 -6 -5 -1 -3 -9 -21 -23 -15 -5 -11 -2 -4 -73 -46 -10 -5 -2 -2 -4 -2 -4 -19 -41 -329 -6 -10 -80 -50 -41 -27 -11 -29 -11 -6 -13 -30 -21
0 0 -3 -2 -5 -16 -152 -177 -1 -6 -11 -4 -5 -4 -55 -280 -73 -16 -55 -45 -28 -8 0 -2 -1 -9 -3 0 -3 -1 -1 -5 -4 -10 -19 -18 -19 -7 -5 -8 -18 -12 -20 -16 -18 -29 -8 -14 -45
0 0 -6 -3 -13 -20 -127 -151 -21 -15 -22 -22 -6 -13 -38 -97 -34 -57 -86 -91 -45 -25 -8 -3 -3 -1 -5 -9 -4 -4 -3 -5 -2 -1 -3 -14 -11 -7 -4 -17 -21 -20 -6 -6 -14 -15 -31 -6 -9
-9 -5 -10 -4 -17 -8 -16 -40 -5 -25 -47 -76 -100 -14 -11 -13 -2 -15 -55 -97 -96 -41 -17 -20 -22 -13 -14 -11 -4 -15 -40 -36 -5 -8 -3 -2 -3 -72 -9 -5 -18 -17 -4 -4 -16 -4 0 -5 -13
Wind_Speed
9 10 11 1 7 4 8 14 16 6 7 14 12 13 16 2 9 12 18 22 23 19 17 16 17 18 18 18 18 17 17 17 18 17 17 16 15 15 14 13 14 12 13 14 13 13 12 12 11
10 12 2 7 4 3 6 12 13 12 12 5 20 11 18 20 22 21 17 22 21 19 18 17 17 18 19 18 19 17 17 17 17 18 18 17 16 14 14 12 12 11 11 11 12 11 11 10 9
10 13 5 4 5 6 5 15 9 18 9 14 15 15 10 18 26 16 22 22 22 18 17 17 16 19 19 19 19 19 17 17 16 19 17 18 20 15 12 10 10 10 10 9 8 10 9 9 8
6 4 7 1 7 14 12 7 16 9 17 19 17 14 20 15 19 24 24 19 19 19 19 17 17 19 18 17 18 19 18 17 16 19 19 14 17 17 13 9 7 6 8 7 7 6 6 5 6
11 6 4 7 9 13 9 12 15 5 15 14 21 20 14 17 19 25 21 19 17 16 17 17 16 18 17 17 17 17 17 16 17 18 20 18 15 11 11 9 6 2 3 4 5 4 4 4 4
8 2 1 10 19 11 9 10 11 18 16 10 20 16 13 20 18 21 20 20 14 16 18 16 16 16 16 17 17 16 16 17 16 17 17 21 17 8 6 7 6 4 2 1 2 2 2 3 4
8 6 14 16 7 6 9 13 7 13 16 8 20 16 12 17 14 23 14 21 19 18 18 14 14 14 16 15 16 17 16 16 13 13 13 16 19 11 8 3 7 6 6 5 3 3 4 5 5
8 2 11 7 9 8 11 4 10 15 6 9 18 8 16 19 18 27 18 15 13 16 17 14 13 12 12 12 16 17 16 16 13 13 11 11 15 17 14 10 9 8 6 6 5 5 6 7 7
6 4 9 13 9 5 8 11 19 28 13 8 16 16 21 20 19 16 19 15 16 14 15 17 16 12 12 12 12 14 15 14 14 12 12 10 3 6 11 12 10 7 8 9 7 7 7 8 10
4 6 10 14 8 7 4 22 23 13 20 16 16 18 21 20 16 18 16 17 16 13 18 16 16 15 14 10 13 11 8 2 5 6 8 6 6 5 10 13 16 15 12 12 12 11 11 9 6
12 4 9 10 10 5 15 9 15 7 12 17 13 15 19 17 15 15 15 15 19 15 12 12 12 14 12 7 8 5 6 6 5 9 5 5 4 6 5 5 6 6 12 7 10 9 6 7 10
7 5 11 6 3 1 9 9 3 14 7 15 15 16 18 18 16 15 16 14 13 11 12 10 13 7 8 7 6 8 7 6 4 6 8 4 3 3 6 7 7 7 8 8 7 4 6 6 10
11 3 12 9 7 4 1 3 12 14 9 15 17 16 17 16 15 15 14 15 13 11 10 8 15 12 8 8 6 6 6 4 8 7 5 5 7 6 5 7 7 9 9 6 3 6 5 7 7
5 5 1 10 7 5 4 3 19 7 14 16 13 15 16 15 15 14 14 16 15 14 12 11 11 10 9 9 9 6 8 11 7 6 7 10 7 7 7 7 7 6 3 4 4 4 3 1 5
7 11 11 7 7 3 6 4 8 10 12 15 16 15 14 14 15 14 13 15 15 14 13 16 14 13 10 6 6 4 8 10 7 7 7 5 8 7 8 7 5 7 5 7 5 4 3 3 6
14 6 9 5 3 7 9 2 9 11 9 15 16 14 15 14 15 14 13 12 15 14 13 14 12 16 11 9 6 4 3 7 7 7 5 7 3 6 8 6 6 6 5 4 5 4 4 5 6
8 2 8 7 8 4 6 2 10 9 12 11 13 16 13 14 14 14 15 14 14 12 14 12 9 14 13 10 9 8 8 5 4 6 6 7 7 10 5 5 5 4 4 6 5 3 4 2 5
8 3 7 2 9 2 8 11 7 10 14 9 12 18 14 16 16 17 17 15 15 12 12 10 10 10 7 6 7 5 7 5 5 6 5 7 4 5 3 4 3 2 4 3 3 5 5 3 3
6 7 9 3 3 2 5 10 10 7 7 13 9 16 17 16 15 18 16 16 15 14 14 12 10 11 4 4 6 5 7 8 8 7 7 7 6 7 7 2 1 3 4 5 3 3 4 4 5
7 9 4 4 2 7 10 11 4 3 2 2 6 12 15 17 18 16 16 15 13 12 13 13 11 9 5 3 3 3 4 4 5 5 6 8 7 7 6 5 3 4 2 5 4 4 4 3 3
14 8 10 6 11 14 11 7 7 5 6 4 6 8 13 15 19 18 17 15 13 12 13 12 12 11 8 7 5 3 2 1 4 5 6 9 9 8 5 6 4 4 3 1 2 7 6 3 3
10 9 10 9 13 12 13 3 2 19 13 7 5 9 13 15 13 19 20 17 15 13 11 12 13 13 10 9 7 6 4 5 5 6 7 8 9 10 8 8 7 7 5 6 8 7 5 4 6
11 11 7 11 10 16 12 10 10 18 23 20 5 5 14 13 15 28 10 20 18 16 12 10 10 12 11 11 9 6 6 6 7 6 4 6 9 11 11 10 9 9 8 9 9 6 6 7 6
7 11 15 16 12 11 4 9 5 7 26 23 4 6 4 10 11 26 37 19 15 16 14 11 11 9 10 12 11 8 9 8 3 7 5 6 7 8 13 14 12 12 10 8 9 10 9 8 6
12 15 10 7 10 4 11 2 13 22 34 27 1 9 6 6 3 4 13 14 13 18 15 13 13 11 9 9 10 11 10 8 6 5 6 8 8 8 12 13 13 11 11 10 9 10 11 9 6
15 16 9 4 7 3 12 9 14 24 27 6 12 9 7 8 12 14 11 7 11 14 12 12 16 13 12 10 9 8 10 7 8 8 9 11 8 10 12 13 12 11 12 11 9 8 6 7 7
16 16 6 11 23 7 8 10 11 10 13 9 14 11 11 19 17 16 13 10 8 6 4 10 14 11 11 12 9 9 8 9 8 10 10 9 4 1 12 13 11 12 12 11 11 8 9 6 6
16 12 10 7 4 7 5 8 16 9 7 9 5 11 20 23 22 8 8 10 7 3 5 7 4 7 5 6 9 8 8 9 8 7 6 7 5 3 2 5 7 9 11 10 9 11 9 10 8
9 11 12 9 7 4 6 7 18 6 3 5 11 7 18 19 16 6 4 4 7 8 8 4 6 7 10 10 9 8 7 6 9 8 7 6 6 5 6 5 8 9 7 8 9 11 11 12 11
7 7 6 2 9 3 9 6 12 8 6 6 4 10 13 6 9 8 10 9 8 7 6 8 7 6 8 7 1 8 9 9 8 7 8 4 5 2 5 7 7 9 8 8 9 11 10 13 12
Wind_Direction
208 212 227 20 52 298 121 68 83 54 32 52 59 94 103 57 106 114 136 118 121 136 127 131 132 126 126 124 122 121 112 111 106 100 96 94 90 93 89 87 91 101 98 103 103 105 108 110 118
256 230 291 36 11 6 358 117 83 58 86 21 87 64 69 88 95 120 128 132 132 133 146 137 139 133 135 131 129 126 119 114 112 104 96 91 79 74 83 88 86 83 88 99 106 110 113 118 119
248 246 78 164 259 83 83 72 73 30 37 138 80 50 75 105 124 128 127 133 134 145 135 128 135 139 140 138 143 137 130 126 121 113 110 109 97 75 59 64 83 89 85 79 87 106 113 119 129
235 172 44 319 42 96 46 47 100 134 78 83 111 75 95 121 112 127 126 134 139 142 124 135 140 143 142 144 150 146 145 138 129 121 116 104 100 90 63 45 49 76 95 98 94 96 101 115 139
222 108 218 230 73 29 60 36 74 65 54 81 96 107 90 94 117 116 132 126 131 117 131 140 142 146 147 151 153 154 148 143 133 127 124 116 103 88 65 36 27 16 75 111 111 115 119 135 171
268 124 275 58 55 319 15 31 94 91 81 124 115 119 103 112 137 134 142 136 131 130 142 141 142 147 155 156 156 157 156 145 146 137 134 122 113 120 91 13 359 334 338 275 120 153 177 193 212
227 217 91 91 98 273 28 29 15 77 163 96 96 109 131 139 147 134 137 139 156 146 128 142 153 156 160 161 160 155 155 153 161 149 143 138 138 155 176 281 320 307 286 273 223 198 223 233 242
294 6 92 92 133 57 83 75 34 63 63 92 130 147 153 152 157 136 148 145 131 142 143 145 147 158 164 165 169 169 167 166 173 177 165 153 162 182 195 214 267 262 277 267 257 238 242 251 256
261 9 131 75 65 112 119 94 29 355 350 95 105 146 153 150 160 135 153 148 149 160 158 156 156 162 177 167 173 179 175 181 183 184 177 170 137 191 196 210 251 272 274 269 265 254 259 267 265
36 40 38 117 190 100 105 101 109 172 257 100 87 114 136 157 167 154 140 155 155 153 162 166 167 168 179 180 161 171 160 182 182 192 175 188 184 201 208 222 234 254 265 261 257 252 255 266 299
68 54 122 52 26 67 112 174 175 172 59 96 122 136 149 162 177 163 150 159 152 176 160 171 158 166 162 142 157 167 147 191 211 202 162 208 168 197 222 257 246 240 253 245 239 229 230 73 263
112 83 79 88 316 212 50 68 46 81 49 94 128 144 156 166 178 166 164 164 158 177 169 160 140 134 135 142 154 178 157 158 194 209 181 184 194 206 209 223 220 233 241 227 242 167 175 200 227
74 356 140 147 228 104 167 102 18 118 124 104 125 152 158 178 181 168 178 158 169 185 194 147 146 145 158 147 173 168 135 176 182 183 202 202 192 199 249 244 225 219 222 237 244 264 190 171 245
105 212 215 147 135 168 234 122 117 257 120 115 138 157 166 180 180 172 188 164 174 179 187 144 151 154 162 174 178 160 146 222 191 182 189 212 208 174 207 241 248 263 198 253 252 268 231 190 267
245 232 206 94 81 336 45 294 129 111 142 143 156 170 168 181 178 181 199 173 174 175 181 158 161 164 173 178 168 209 162 192 174 186 192 226 225 200 198 221 238 251 241 224 241 283 210 236 267
224 267 122 188 206 144 241 311 136 153 173 159 164 169 165 183 176 184 190 182 167 179 159 166 184 172 175 155 162 225 101 149 165 172 197 202 234 227 207 206 210 231 246 255 247 228 242 209 245
224 188 108 142 144 274 211 324 184 171 156 176 174 160 170 177 183 177 181 187 175 183 167 188 150 171 175 173 169 189 134 120 185 174 185 192 185 229 198 201 222 208 234 227 250 263 244 265 250
229 168 114 182 154 77 302 279 229 214 173 177 182 155 168 174 192 172 183 198 172 173 172 175 161 133 160 152 153 183 122 153 210 203 198 214 207 112 294 220 242 244 257 283 276 286 317 325 272
338 299 327 290 2 271 259 292 278 225 226 173 180 168 171 180 179 170 193 181 184 168 163 172 165 127 123 146 169 201 167 181 194 203 185 199 219 166 178 185 255 202 267 257 252 274 283 290 278
296 273 278 28 357 244 238 238 281 324 247 233 203 173 176 178 168 174 177 179 191 167 164 168 153 143 156 147 233 183 164 206 197 187 175 199 219 163 161 184 191 254 221 240 255 313 257 269 280
257 309 45 321 290 257 252 225 149 112 210 207 242 190 183 179 175 175 174 184 183 168 163 166 158 164 182 209 206 207 140 68 215 180 192 208 204 187 180 186 190 224 222 261 214 241 218 237 277
299 38 329 308 300 303 198 137 319 14 350 153 165 191 177 185 196 170 173 178 184 169 176 167 171 167 181 198 217 198 192 175 197 208 197 189 180 189 187 196 192 218 221 181 227 236 192 208 248
313 339 309 284 273 277 231 135 13 43 339 299 117 29 188 189 199 22 229 174 183 155 170 176 168 170 184 190 212 202 213 213 184 208 188 186 186 197 199 201 204 221 221 204 202 221 230 209 223
291 281 271 257 245 261 307 131 12 85 243 272 145 201 36 334 109 144 233 164 171 155 147 163 167 186 193 187 200 214 218 243 235 188 172 194 205 211 198 197 200 208 214 217 212 215 219 231 234
251 255 261 258 254 12 285 71 170 196 222 246 67 60 42 310 28 84 138 153 151 138 152 151 164 174 191 213 208 201 220 224 239 203 190 201 212 209 204 196 204 200 199 215 221 222 211 218 221
271 274 293 17 314 209 291 135 167 201 208 98 106 82 71 52 41 29 46 113 142 150 168 158 161 173 178 189 216 212 213 214 218 201 232 204 212 212 206 190 203 205 201 209 211 222 214 210 218
246 250 271 237 219 195 15 3 114 123 110 115 97 88 70 63 47 20 9 21 62 143 133 135 162 171 181 193 198 212 222 224 226 235 229 265 190 213 191 190 189 200 210 209 211 215 206 202 212
270 314 295 307 21 360 73 42 252 43 49 74 66 97 80 74 2 355 4 12 30 85 136 114 154 161 169 229 200 208 226 222 240 243 269 292 331 302 200 224 208 198 214 213 219 222 213 200 216
197 240 243 307 295 145 221 216 262 151 67 29 92 87 123 141 164 125 103 54 17 40 36 66 161 186 188 204 218 200 203 234 237 236 229 225 249 243 276 258 264 252 220 218 224 231 221 223 215
220 283 259 279 296 327 323 83 43 26 96 96 349 66 62 36 116 166 158 152 116 101 40 50 10 5 340 336 287 195 212 231 236 230 247 224 225 273 287 250 254 245 251 239 233 229 223 223 223